Location: *
(45.1333°S, 169.6333°W)
Time: 18:29:11
(UTC+00:00)

USA 307 - Pass Details

Date: 26 May 2022
Orbit: 552 x 554 km, 54.0° (Epoch: 17 June)

Event Time Altitude Azimuth Distance (km) Brightness Sun altitude
Rises 05:56:02 0° 236° (SW) 2,763 7.1 -21.8°
Reaches altitude 10° 05:58:18 10° 234° (SW) 1,863 6.1 -22.2°
Enters shadow 06:02:22 74° 176° (S) 589 2.8 -22.9°
